GW5927 Weather Reports


Display with metric or nautical units.
time (UTC)temp
F
wind
direction
speed
MPH
gust
MPH
rain 1hr
in
rain 24hr
in
rain mn
in
humidity
%
barometer
mb
20260507062426 52 213 1.0 2.0 0.00 0.00 0.00 90 1021.0
20260507061927 52 185 2.0 3.0 0.00 0.00 0.00 90 1021.0
20260507061428 52 190 2.0 3.0 0.00 0.00 0.00 90 1021.0
20260507060927 52 164 2.0 3.0 0.00 0.00 0.00 90 1021.0
20260507060427 52 183 1.0 2.0 0.00 0.00 0.00 90 1021.0
20260507055926 52 201 1.0 2.0 0.00 0.00 0.00 90 1021.0
20260507055427 52 225 1.0 2.0 0.00 0.00 0.00 90 1021.0
20260507054927 52 178 3.0 4.0 0.00 0.00 0.00 90 1021.0
20260507054426 52 150 3.0 5.0 0.00 0.00 0.00 90 1021.0
20260507053927 53 234 1.0 2.0 0.00 0.00 0.00 90 1021.0
20260507053429 53 225 0.0 1.0 0.00 0.00 0.00 90 1021.0
20260507052926 53 250 1.0 3.0 0.00 0.00 0.00 90 1021.0
20260507052428 53 236 2.0 3.0 0.00 0.00 0.00 90 1021.0
20260507051926 53 204 1.0 2.0 0.00 0.00 0.00 90 1021.0
20260507051426 53 220 1.0 2.0 0.00 0.00 0.00 90 1021.0
20260507050926 53 198 1.0 2.0 0.00 0.00 0.00 90 1021.0
20260507050427 53 15 0.0 1.0 0.00 0.00 0.00 90 1021.0
20260507045926 53 174 1.0 2.0 0.00 0.00 0.00 89 1021.0
20260507045428 53 335 0.0 1.0 0.00 0.00 0.00 89 1021.0
20260507044926 53 89 0.0 1.0 0.00 0.00 0.00 89 1021.0
20260507044426 53 186 1.0 2.0 0.00 0.00 0.00 89 1021.0
20260507043927 53 293 0.0 1.0 0.00 0.00 0.00 88 1021.0
20260507042942 53 162 1.0 2.0 0.00 0.00 0.00 88 1021.0
20260507042426 53 245 1.0 2.0 0.00 0.00 0.00 87 1021.0
20260507041927 53 179 1.0 2.0 0.00 0.00 0.00 87 1021.0
20260507041426 53 192 2.0 4.0 0.00 0.00 0.00 87 1021.0
20260507040927 54 186 2.0 4.0 0.00 0.00 0.00 86 1021.0
20260507040426 54 212 2.0 4.0 0.00 0.00 0.00 86 1021.0
20260507035927 54 181 2.0 3.0 0.00 0.00 0.00 86 1021.0
20260507035427 54 180 2.0 4.0 0.00 0.00 0.00 85 1020.0
20260507034926 54 195 1.0 2.0 0.00 0.00 0.00 85 1020.0
20260507034427 54 206 1.0 2.0 0.00 0.00 0.00 85 1020.0
20260507033926 54 198 2.0 6.0 0.00 0.00 0.00 84 1020.0
20260507033427 54 201 1.0 2.0 0.00 0.00 0.00 84 1020.0
20260507032927 55 200 4.0 5.0 0.00 0.00 0.00 83 1020.0
20260507032428 55 185 2.0 4.0 0.00 0.00 0.00 83 1020.0
20260507031926 55 207 0.0 2.0 0.00 0.00 0.00 83 1020.0
20260507031428 55 239 1.0 2.0 0.00 0.00 0.00 82 1020.0
20260507030928 55 183 4.0 7.0 0.00 0.00 0.00 82 1020.0
20260507030427 55 204 2.0 3.0 0.00 0.00 0.00 81 1020.0
20260507025928 55 187 3.0 4.0 0.00 0.00 0.00 81 1020.0
20260507025426 55 212 2.0 2.0 0.00 0.00 0.00 81 1020.0
20260507024927 56 196 2.0 4.0 0.00 0.00 0.00 80 1020.0
20260507024428 56 204 2.0 4.0 0.00 0.00 0.00 80 1020.0
20260507023929 56 193 2.0 4.0 0.00 0.00 0.00 80 1020.0
20260507023427 56 210 2.0 2.0 0.00 0.00 0.00 79 1020.0
20260507022930 56 211 2.0 6.0 0.00 0.00 0.00 79 1020.0
20260507022426 56 211 3.0 4.0 0.00 0.00 0.00 78 1020.0
20260507021928 56 204 2.0 5.0 0.00 0.00 0.00 78 1020.0
20260507021433 56 193 2.0 4.0 0.00 0.00 0.00 78 1020.0
20260507020928 57 207 1.0 2.0 0.00 0.00 0.00 77 1020.0
20260507020429 57 202 2.0 4.0 0.00 0.00 0.00 77 1020.0
20260507015926 57 212 2.0 3.0 0.00 0.00 0.00 77 1020.0
20260507015428 57 190 2.0 3.0 0.00 0.00 0.00 76 1020.0
20260507014927 57 206 3.0 4.0 0.00 0.00 0.00 76 1020.0
20260507014427 57 226 1.0 2.0 0.00 0.00 0.00 76 1020.0
20260507013927 57 166 2.0 3.0 0.00 0.00 0.00 76 1020.0
20260507013428 57 161 4.0 8.0 0.00 0.00 0.00 75 1020.0
20260507012927 57 184 3.0 4.0 0.00 0.00 0.00 76 1020.0
20260507012431 57 221 1.0 1.0 0.00 0.00 0.00 75 1020.0
20260507011928 58 185 2.0 4.0 0.00 0.00 0.00 75 1020.0
20260507011426 58 174 3.0 5.0 0.00 0.00 0.00 75 1020.0
20260507010928 58 172 5.0 8.0 0.00 0.00 0.00 75 1020.0
20260507010428 58 164 2.0 5.0 0.00 0.00 0.00 75 1020.0
20260507005929 58 279 1.0 2.0 0.00 0.00 0.00 75 1020.0
20260507005428 58 185 4.0 8.0 0.00 0.00 0.00 75 1020.0
20260507004927 58 188 3.0 5.0 0.00 0.00 0.00 75 1020.0
20260507004426 58 161 5.0 6.0 0.00 0.00 0.00 75 1020.0
20260507003927 58 211 4.0 6.0 0.00 0.00 0.00 74 1020.0
20260507003426 58 170 4.0 8.0 0.00 0.00 0.00 75 1020.0
20260507002928 58 170 6.0 8.0 0.00 0.00 0.00 74 1020.0
20260507002428 58 164 6.0 8.0 0.00 0.00 0.00 74 1020.0
20260507001927 58 174 2.0 5.0 0.00 0.00 0.00 75 1020.0
20260507001427 58 186 4.0 6.0 0.00 0.00 0.00 74 1020.0
20260507000926 58 185 5.0 6.0 0.00 0.00 0.00 75 1020.0
20260507000427 58 187 2.0 4.0 0.00 0.00 0.00 76 1020.0
20260506235927 58 175 6.0 8.0 0.00 0.00 0.00 75 1020.0
20260506235426 58 182 5.0 7.0 0.00 0.00 0.00 75 1020.0
20260506234927 58 246 0.0 1.0 0.00 0.00 0.00 76 1020.0
20260506234426 58 189 2.0 3.0 0.00 0.00 0.00 76 1020.0
20260506233453 58 176 4.0 7.0 0.00 0.00 0.00 75 1020.0
20260506232926 58 198 4.0 8.0 0.00 0.00 0.00 74 1020.0
20260506232426 58 183 5.0 9.0 0.00 0.00 0.00 74 1020.0
20260506231927 58 185 4.0 7.0 0.00 0.00 0.00 75 1020.0
20260506231428 58 273 3.0 5.0 0.00 0.00 0.00 74 1020.0
20260506230927 58 173 5.0 9.0 0.00 0.00 0.00 74 1020.0
20260506230426 58 183 6.0 11.0 0.00 0.00 0.00 73 1020.0
20260506225452 58 214 3.0 4.0 0.00 0.00 0.00 74 1020.0
20260506224928 58 242 3.0 7.0 0.00 0.00 0.00 75 1020.0
20260506224426 58 213 1.0 2.0 0.00 0.00 0.00 77 1020.0
20260506223929 58 212 4.0 9.0 0.00 0.00 0.00 74 1020.0
20260506223428 58 178 3.0 7.0 0.00 0.00 0.00 75 1020.0
20260506222927 57 182 2.0 4.0 0.00 0.00 0.00 76 1020.0
20260506222426 57 176 5.0 7.0 0.00 0.00 0.00 75 1020.0
20260506221926 57 205 3.0 4.0 0.00 0.00 0.00 75 1020.0
20260506221428 57 177 3.0 5.0 0.00 0.00 0.00 76 1020.0
20260506220928 57 212 1.0 2.0 0.00 0.00 0.00 76 1021.0
20260506220428 57 197 2.0 4.0 0.00 0.00 0.00 76 1021.0
20260506215928 56 203 2.0 3.0 0.00 0.00 0.00 77 1021.0
20260506215427 57 192 5.0 8.0 0.00 0.00 0.00 75 1020.0
20260506214928 57 262 1.0 3.0 0.00 0.00 0.00 77 1020.0
20260506214426 56 194 2.0 4.0 0.00 0.00 0.00 76 1021.0
20260506213929 56 204 3.0 5.0 0.00 0.00 0.00 76 1021.0
20260506213426 56 200 4.0 8.0 0.00 0.00 0.00 76 1021.0
20260506212927 56 235 2.0 5.0 0.00 0.00 0.00 76 1021.0
20260506212428 56 192 2.0 6.0 0.00 0.00 0.00 76 1021.0
20260506211926 56 218 3.0 4.0 0.00 0.00 0.00 76 1021.0
20260506211427 56 183 6.0 8.0 0.00 0.00 0.00 75 1020.0
20260506210927 56 171 5.0 6.0 0.00 0.00 0.00 75 1020.0
20260506210429 56 214 2.0 5.0 0.00 0.00 0.00 75 1020.0
20260506205927 56 197 4.0 8.0 0.00 0.00 0.00 75 1020.0
20260506205426 56 191 4.0 8.0 0.00 0.00 0.00 75 1020.0
20260506204927 56 196 7.0 9.0 0.00 0.00 0.00 74 1020.0
20260506204426 56 217 3.0 5.0 0.00 0.00 0.00 74 1020.0
20260506203928 56 200 1.0 2.0 0.00 0.00 0.00 75 1021.0
20260506203426 56 271 2.0 7.0 0.00 0.00 0.00 75 1020.0
20260506202929 56 212 2.0 4.0 0.00 0.00 0.00 74 1020.0
20260506202426 57 291 0.0 2.0 0.00 0.00 0.00 74 1020.0
20260506201930 57 210 4.0 6.0 0.00 0.00 0.00 73 1020.0
20260506201430 57 194 4.0 6.0 0.00 0.00 0.00 74 1020.0
20260506200930 57 192 5.0 8.0 0.00 0.00 0.00 74 1021.0
20260506200426 56 207 5.0 6.0 0.00 0.00 0.00 74 1021.0
20260506195926 56 199 4.0 6.0 0.00 0.00 0.00 74 1020.0
20260506195427 56 203 4.0 6.0 0.00 0.00 0.00 74 1020.0
20260506194928 56 204 3.0 4.0 0.00 0.00 0.00 75 1020.0
20260506194426 56 196 6.0 9.0 0.00 0.00 0.00 74 1020.0
20260506193928 56 217 4.0 6.0 0.00 0.00 0.00 75 1020.0
20260506193429 56 226 2.0 5.0 0.00 0.00 0.00 76 1020.0
20260506192928 55 186 5.0 8.0 0.00 0.00 0.00 76 1020.0
20260506192429 55 207 3.0 5.0 0.00 0.00 0.00 76 1020.0
20260506191928 55 213 4.0 7.0 0.00 0.00 0.00 76 1020.0
20260506191430 55 175 4.0 7.0 0.00 0.00 0.00 76 1020.0
20260506190927 56 201 5.0 8.0 0.00 0.00 0.00 76 1020.0
20260506190434 56 241 2.0 6.0 0.00 0.00 0.00 76 1020.0
20260506185927 56 205 4.0 5.0 0.00 0.00 0.00 75 1020.0
20260506185426 56 210 4.0 8.0 0.00 0.00 0.00 75 1020.0
20260506184930 57 187 4.0 7.0 0.00 0.00 0.00 73 1020.0
20260506184429 57 182 3.0 7.0 0.00 0.00 0.00 75 1021.0
20260506183930 56 187 2.0 5.0 0.00 0.00 0.00 75 1021.0
20260506183428 56 268 3.0 5.0 0.00 0.00 0.00 76 1020.0
20260506182928 56 205 4.0 7.0 0.00 0.00 0.00 75 1020.0
20260506182428 56 200 6.0 8.0 0.00 0.00 0.00 75 1020.0
20260506181927 56 243 4.0 7.0 0.00 0.00 0.00 75 1020.0
20260506181427 56 212 3.0 8.0 0.00 0.00 0.00 75 1020.0
20260506180926 56 194 4.0 9.0 0.00 0.00 0.00 75 1020.0
20260506180427 56 246 2.0 4.0 0.00 0.00 0.00 77 1020.0
20260506175926 56 241 2.0 4.0 0.00 0.00 0.00 77 1020.0
20260506175428 56 205 3.0 5.0 0.00 0.00 0.00 76 1020.0
20260506174929 55 249 2.0 6.0 0.00 0.00 0.00 78 1020.0
20260506174427 55 202 6.0 8.0 0.00 0.00 0.00 78 1020.0
20260506173929 55 239 2.0 5.0 0.00 0.00 0.00 80 1020.0
20260506173428 54 204 5.0 7.0 0.00 0.00 0.00 80 1020.0
20260506172927 54 202 4.0 7.0 0.00 0.00 0.00 81 1020.0
20260506172428 54 241 4.0 7.0 0.00 0.00 0.00 81 1020.0
20260506171928 54 197 1.0 3.0 0.00 0.00 0.00 82 1020.0
20260506171430 54 266 2.0 3.0 0.00 0.00 0.00 81 1020.0
20260506170926 54 185 4.0 7.0 0.00 0.00 0.00 82 1020.0
20260506170429 54 194 4.0 6.0 0.00 0.00 0.00 84 1020.0
20260506165929 53 211 4.0 6.0 0.00 0.00 0.00 84 1020.0
20260506165429 53 212 2.0 4.0 0.00 0.00 0.00 85 1020.0
20260506164927 53 215 2.0 4.0 0.00 0.00 0.00 87 1020.0
20260506164430 53 211 1.0 2.0 0.00 0.00 0.00 88 1020.0
20260506163931 53 206 3.0 5.0 0.00 0.00 0.00 87 1020.0
20260506163427 54 190 3.0 6.0 0.00 0.00 0.00 87 1020.0
20260506162928 54 250 1.0 3.0 0.00 0.00 0.00 87 1020.0
20260506162427 53 211 4.0 6.0 0.00 0.00 0.00 87 1020.0
20260506161928 53 179 5.0 9.0 0.00 0.00 0.00 87 1020.0
20260506161431 53 201 3.0 4.0 0.00 0.00 0.00 87 1019.0
20260506160927 53 210 3.0 6.0 0.00 0.00 0.00 88 1020.0
20260506160428 53 226 2.0 4.0 0.00 0.00 0.00 88 1019.0
20260506155929 53 183 4.0 5.0 0.00 0.00 0.00 89 1019.0
20260506155431 53 223 3.0 5.0 0.00 0.00 0.00 89 1019.0
20260506154931 53 181 4.0 6.0 0.00 0.00 0.00 89 1019.0
20260506154428 53 211 5.0 7.0 0.00 0.00 0.00 90 1019.0
20260506153931 53 178 4.0 7.0 0.00 0.00 0.00 91 1019.0
20260506153428 52 169 3.0 6.0 0.00 0.00 0.00 91 1020.0
20260506152928 52 176 4.0 6.0 0.00 0.00 0.00 90 1019.0
20260506152427 52 185 3.0 6.0 0.00 0.00 0.00 90 1020.0
20260506151929 52 188 3.0 5.0 0.00 0.00 0.00 91 1020.0
20260506151429 52 183 2.0 4.0 0.00 0.00 0.00 91 1020.0
20260506150930 52 227 2.0 4.0 0.00 0.00 0.00 91 1020.0
20260506150430 52 191 2.0 4.0 0.00 0.00 0.00 91 1020.0
20260506145931 52 203 2.0 3.0 0.00 0.00 0.00 91 1020.0
20260506145429 52 186 1.0 2.0 0.00 0.00 0.00 92 1019.0
20260506144931 52 196 2.0 4.0 0.00 0.00 0.00 92 1019.0
20260506144431 52 189 2.0 6.0 0.00 0.00 0.00 92 1019.0
20260506143931 52 190 3.0 4.0 0.00 0.00 0.00 92 1019.0
20260506143432 52 157 2.0 3.0 0.00 0.00 0.00 92 1019.0
20260506142929 52 199 2.0 4.0 0.00 0.00 0.00 92 1019.0
20260506142430 52 191 4.0 5.0 0.00 0.00 0.00 92 1019.0
20260506141928 52 189 2.0 3.0 0.00 0.00 0.00 92 1019.0
20260506141426 52 259 0.0 2.0 0.00 0.00 0.00 92 1019.0
20260506140927 51 202 2.0 3.0 0.00 0.00 0.00 92 1019.0
20260506140428 51 253 1.0 2.0 0.00 0.00 0.00 92 1019.0
20260506135929 51 207 1.0 2.0 0.00 0.00 0.00 92 1019.0
20260506135427 51 167 3.0 4.0 0.00 0.00 0.00 92 1019.0
20260506134927 51 160 2.0 3.0 0.00 0.00 0.00 92 1019.0
20260506134430 51 197 1.0 3.0 0.00 0.00 0.00 92 1019.0
20260506133926 51 200 1.0 2.0 0.00 0.00 0.00 92 1019.0
20260506133428 51 183 1.0 2.0 0.00 0.00 0.00 92 1019.0
20260506132928 51 195 3.0 4.0 0.00 0.00 0.00 92 1019.0
20260506132005 51 210 1.0 3.0 0.00 0.00 0.00 92 1019.0
20260506131427 51 214 1.0 2.0 0.00 0.00 0.00 93 1019.0
20260506130927 51 169 3.0 5.0 0.00 0.00 0.00 93 1019.0
20260506130430 51 184 2.0 6.0 0.00 0.00 0.00 93 1019.0
20260506125928 51 168 1.0 4.0 0.00 0.00 0.00 93 1019.0
20260506125429 51 233 1.0 3.0 0.00 0.00 0.00 93 1019.0
20260506124928 51 175 2.0 3.0 0.00 0.00 0.00 93 1018.0
20260506124426 51 178 2.0 3.0 0.00 0.00 0.00 93 1019.0
20260506123926 51 187 2.0 2.0 0.00 0.00 0.00 93 1019.0
20260506123428 51 203 1.0 3.0 0.00 0.00 0.00 93 1018.0
20260506122928 51 170 1.0 2.0 0.00 0.00 0.00 93 1018.0
20260506122430 51 186 2.0 4.0 0.00 0.00 0.00 93 1018.0
20260506121931 51 200 1.0 2.0 0.00 0.00 0.00 92 1018.0
20260506121427 52 195 2.0 3.0 0.00 0.00 0.00 92 1018.0
20260506120929 52 178 4.0 7.0 0.00 0.00 0.00 91 1018.0
20260506120430 52 191 2.0 3.0 0.00 0.00 0.00 91 1018.0
20260506115929 52 197 2.0 4.0 0.00 0.00 0.00 91 1018.0
20260506115429 52 201 2.0 4.0 0.00 0.00 0.00 91 1018.0
20260506114928 52 193 3.0 4.0 0.00 0.00 0.00 90 1018.0
20260506114428 52 236 0.0 2.0 0.00 0.00 0.00 90 1018.0
20260506113927 52 198 2.0 3.0 0.00 0.00 0.00 90 1018.0
20260506113427 52 276 1.0 2.0 0.00 0.00 0.00 90 1018.0
20260506112929 52 0 0.0 0.0 0.00 0.00 0.00 90 1018.0
20260506112427 52 224 1.0 3.0 0.00 0.00 0.00 90 1018.0
20260506111930 52 182 2.0 3.0 0.00 0.00 0.00 90 1018.0
20260506111429 52 177 2.0 3.0 0.00 0.00 0.00 90 1018.0
20260506110928 52 206 1.0 2.0 0.00 0.00 0.00 90 1018.0
20260506110428 52 143 3.0 4.0 0.00 0.00 0.00 90 1018.0
20260506105928 52 168 2.0 3.0 0.00 0.00 0.00 90 1018.0
20260506105426 52 257 3.0 4.0 0.00 0.00 0.00 90 1018.0
20260506104928 52 144 2.0 3.0 0.00 0.00 0.00 90 1018.0
20260506104432 52 188 3.0 5.0 0.00 0.00 0.00 90 1018.0
20260506103928 52 212 0.0 1.0 0.00 0.00 0.00 90 1018.0
20260506103429 52 203 1.0 1.0 0.00 0.00 0.00 90 1018.0
20260506102928 52 191 2.0 4.0 0.00 0.00 0.00 90 1018.0
20260506102429 52 213 1.0 2.0 0.00 0.00 0.00 90 1018.0
20260506101928 52 169 0.0 1.0 0.00 0.00 0.00 90 1018.0
20260506101430 52 238 1.0 2.0 0.00 0.00 0.00 90 1018.0
20260506100927 52 210 3.0 5.0 0.00 0.00 0.00 91 1018.0
20260506100429 52 356 0.0 1.0 0.00 0.00 0.00 91 1018.0
20260506095926 52 232 0.0 1.0 0.00 0.00 0.00 91 1018.0
20260506095427 52 210 0.0 1.0 0.00 0.00 0.00 91 1018.0
20260506094928 52 135 1.0 2.0 0.00 0.00 0.00 91 1018.0
20260506094427 52 182 2.0 2.0 0.00 0.00 0.00 91 1018.0
20260506093926 51 212 0.0 1.0 0.00 0.00 0.00 92 1018.0
20260506093427 51 134 0.0 1.0 0.00 0.00 0.00 92 1017.0
20260506092926 51 183 0.0 1.0 0.00 0.00 0.00 92 1017.0
20260506092426 51 177 1.0 3.0 0.00 0.00 0.00 93 1018.0
20260506091928 51 174 1.0 2.0 0.00 0.00 0.00 93 1018.0
20260506091429 51 189 1.0 2.0 0.00 0.00 0.00 94 1018.0
20260506090928 51 185 1.0 2.0 0.00 0.00 0.00 94 1017.0
20260506090427 50 253 0.0 2.0 0.00 0.00 0.00 95 1017.0
20260506085928 50 157 1.0 2.0 0.00 0.00 0.00 95 1017.0
20260506085428 49 184 2.0 3.0 0.00 0.00 0.00 95 1017.0
20260506084927 49 222 3.0 6.0 0.00 0.00 0.00 95 1017.0
20260506084427 48 208 1.0 2.0 0.00 0.00 0.00 95 1017.0
20260506083929 48 336 0.0 1.0 0.00 0.00 0.00 95 1017.0
20260506083429 48 192 0.0 1.0 0.00 0.00 0.00 95 1017.0
20260506082926 48 307 0.0 1.0 0.00 0.00 0.00 95 1017.0
20260506082426 47 358 1.0 1.0 0.00 0.00 0.00 95 1017.0
20260506081927 47 69 0.0 1.0 0.00 0.00 0.00 94 1017.0
20260506081427 48 28 0.0 1.0 0.00 0.00 0.00 94 1017.0
20260506080929 48 37 0.0 1.0 0.00 0.00 0.00 94 1017.0
20260506080428 48 357 0.0 1.0 0.00 0.00 0.00 94 1017.0
20260506073426 49 0 0.0 0.0 0.00 0.00 0.00 93 1016.0
20260506072928 49 23 0.0 1.0 0.00 0.00 0.00 93 1016.0
20260506072426 49 337 1.0 1.0 0.00 0.00 0.00 93 1016.0
20260506071926 49 301 1.0 2.0 0.00 0.00 0.00 93 1016.0
20260506071431 50 350 0.0 1.0 0.00 0.00 0.00 93 1016.0
20260506070926 50 313 1.0 1.0 0.00 0.00 0.00 92 1016.0
20260506070427 50 317 1.0 1.0 0.00 0.00 0.00 92 1016.0